Location: ČR
(50.0000°N, 15.0000°E)
Time: 14:32:29
(UTC+00:00)

Explorer 7 - Pass Details

Date: 23 October 2021
Orbit: 483 x 675 km, 50.3° (Epoch: 27 November)

Event Time Altitude Azimuth Distance (km) Brightness Sun altitude
Rises 03:24:40 0° 281° (WNW) 2,916 - -21.5°
Reaches altitude 10° 03:27:50 10° 259° (WSW) 2,040 - -21.0°
Maximum altitude 03:30:29 15° 225° (SW) 1,750 - -20.6°
Exits shadow 03:32:49 11° 194° (SSW) 2,003 9.5 -20.2°
Drops below altitude 10° 03:33:10 10° 190° (S) 2,077 9.6 -20.2°
Sets 03:36:27 0° 168° (SSE) 3,003 10.7 -19.6°
